GFSSW_sfc_rhum_210.txt.gz
RH
81 80 79 79 80 81 80 82 83 84 84 85 86 88 90 91 85 28 18 18 24 54 48 14 13 12 11 14 14 25 56 32 33 35 36 30 34 27 24 28 32 48 64 39 28
81 81 80 81 80 81 82 82 83 84 85 86 87 88 90 91 32 15 30 56 54 55 13 12 13 12 13 14 15 33 36 27 20 22 30 29 31 30 34 46 63 62 60 31 27
81 81 81 80 80 81 82 83 83 84 85 85 85 88 90 76 21 13 58 51 54 44 13 12 11 12 13 12 13 14 22 19 19 19 22 27 28 25 49 60 54 74 77 45 30
82 81 83 81 81 81 82 83 84 84 85 85 85 88 88 32 18 12 55 61 63 19 12 12 11 12 10 12 11 20 15 16 18 19 20 25 25 28 27 37 31 47 66 31 31
83 83 82 82 81 81 82 83 84 85 85 84 83 86 37 18 12 12 64 54 17 11 11 11 12 11 12 10 11 13 13 15 16 17 18 19 24 25 25 23 22 34 28 30 28
83 83 82 81 82 82 82 84 84 85 84 83 82 90 31 15 6 9 11 12 10 9 10 10 11 11 12 11 12 11 13 13 12 12 15 16 21 22 22 21 23 25 27 28 28
82 82 82 81 82 82 83 84 85 84 84 83 81 43 17 10 5 6 8 8 7 9 10 8 9 12 12 12 10 10 14 15 12 10 12 11 23 24 18 19 24 25 26 27 27
81 81 81 81 81 82 84 85 85 83 83 82 80 32 17 5 5 5 7 8 7 7 8 8 9 12 12 10 11 13 13 20 14 11 10 11 32 25 20 21 22 23 25 28 28
81 80 80 80 82 86 88 86 84 83 82 78 40 23 12 18 5 4 7 8 7 6 7 7 9 11 10 12 14 13 18 19 13 11 10 10 14 14 18 19 21 22 24 27 28
80 84 79 81 84 87 88 87 68 75 58 26 20 19 13 7 4 5 6 7 7 7 7 8 8 11 10 11 18 17 16 13 14 11 11 12 12 9 18 16 17 20 23 27 27
82 86 84 83 84 88 68 30 23 25 23 12 10 11 6 5 5 6 7 7 7 8 9 8 9 11 10 10 11 12 11 12 12 9 11 13 12 10 9 13 16 18 21 26 25
86 88 87 85 86 85 60 23 10 11 13 12 9 6 6 6 8 7 7 9 9 10 8 9 11 8 8 8 10 9 10 11 11 9 10 13 12 10 9 9 13 17 16 21 23
89 89 88 85 82 69 24 13 8 8 14 11 7 6 7 7 8 8 8 8 10 10 8 9 8 7 7 8 9 8 8 10 12 10 9 13 15 13 11 10 11 10 14 15 21
88 87 82 84 72 19 18 13 10 8 18 11 9 7 7 7 9 6 7 8 9 10 8 8 6 6 7 7 6 7 8 9 11 12 15 9 17 21 13 13 12 11 12 12 16
87 87 87 95 53 18 11 8 7 11 28 11 9 6 7 9 8 8 6 8 10 8 8 8 7 7 8 7 6 8 8 10 10 12 12 11 13 20 14 13 12 11 10 11 14
85 84 82 62 43 24 11 9 11 18 21 11 9 10 9 8 8 8 8 7 7 8 7 7 6 6 7 7 7 7 8 10 11 12 17 11 8 17 14 13 12 12 9 12 13
89 86 80 36 17 11 11 12 17 19 10 12 10 8 9 10 9 9 10 10 11 15 15 10 9 7 7 8 8 8 9 15 20 20 24 10 11 15 12 10 11 12 12 12 12
93 93 71 36 22 13 13 16 23 10 8 8 8 8 10 8 9 9 11 11 10 10 11 12 14 10 8 9 10 10 9 13 26 22 19 15 14 12 9 9 9 11 11 12 13
93 46 27 16 21 15 16 18 13 12 8 8 8 10 10 8 9 9 10 10 10 10 16 15 13 9 8 7 8 11 13 9 12 9 11 12 22 10 8 9 10 12 15 15 14
41 20 14 13 14 15 19 24 12 10 10 8 10 9 12 10 10 10 10 10 11 12 11 13 18 10 8 8 8 9 8 12 12 24 24 17 26 31 19 20 15 14 16 18 20
38 23 13 11 12 17 18 13 11 10 10 10 10 11 11 14 10 12 13 13 12 11 11 11 13 14 11 12 12 11 12 12 11 14 21 17 28 17 19 20 21 20 22 24 26
22 23 12 11 18 14 13 11 31 10 9 10 11 10 10 11 12 12 14 15 12 11 13 11 13 18 13 8 8 9 12 12 16 21 14 16 20 16 42 25 25 28 27 31 32
30 14 10 11 17 12 10 12 11 10 10 10 11 11 12 14 17 14 13 12 12 12 20 14 14 15 12 8 8 9 10 11 12 11 20 17 17 20 20 25 26 32 33 38 37
27 15 12 11 12 16 12 14 12 11 11 12 13 12 13 14 12 15 14 13 12 12 43 26 10 12 12 13 10 12 10 10 11 14 14 12 12 29 18 25 22 39 39 38 41
23 22 11 13 11 12 12 12 13 14 12 12 15 14 13 16 15 15 12 11 10 39 16 11 14 13 11 10 9 9 8 8 9 9 11 11 10 11 28 28 34 36 38 40 42
25 25 21 16 17 14 21 15 13 12 14 14 15 12 12 16 15 16 13 13 14 14 14 11 18 16 16 11 10 10 9 9 9 9 9 8 11 27 29 31 37 37 41 40 41
20 20 23 30 14 14 14 13 14 14 14 13 14 15 14 17 13 12 10 9 9 12 14 15 16 21 22 14 13 16 12 14 13 11 13 20 33 29 32 32 32 30 33 38 37

GFSSW_sfc_rhum_216.txt.gz
RH
83 84 84 84 84 84 85 85 86 87 87 87 87 89 91 91 88 54 30 30 33 56 58 18 18 18 20 23 25 38 53 59 54 53 50 40 58 53 51 64 60 63 73 59 51
83 84 84 84 84 84 85 85 86 86 87 87 88 88 91 91 69 35 33 48 51 56 16 18 20 20 24 23 25 37 52 39 34 39 42 43 54 56 63 69 77 74 62 52 48
83 84 84 84 84 84 85 85 86 87 87 87 87 88 91 91 39 22 59 55 50 49 21 21 19 21 25 23 26 32 34 30 28 31 33 38 44 38 68 77 75 84 73 60 50
83 83 83 85 84 84 85 86 87 87 87 87 86 88 90 76 25 16 60 62 61 33 16 16 18 21 24 26 22 24 19 25 29 28 33 39 41 46 52 47 50 54 54 58 52
83 82 82 83 84 85 85 86 87 88 87 86 85 88 66 36 25 14 62 53 35 23 18 17 18 22 23 19 19 22 21 22 25 23 30 27 41 45 46 48 46 49 52 52 50
82 82 82 82 83 85 85 88 88 87 86 84 83 88 68 30 12 15 23 30 21 20 19 16 17 16 22 24 24 16 20 23 23 24 24 32 39 35 49 46 47 46 50 49 50
82 81 81 81 81 82 85 88 86 86 84 83 83 67 55 20 15 15 26 28 21 17 16 13 15 16 20 21 18 15 23 26 21 15 24 32 46 43 47 43 42 42 45 52 49
81 81 81 81 82 84 87 89 87 85 82 83 81 73 36 19 20 14 12 9 12 14 13 12 14 17 22 19 16 21 23 32 25 18 18 20 33 39 50 48 52 46 45 48 51
82 80 81 81 83 88 90 88 84 81 79 80 85 70 31 25 13 11 10 9 14 12 11 8 14 18 15 22 25 26 29 34 30 20 18 18 25 34 44 46 52 51 50 46 47
82 79 81 81 85 90 90 88 82 81 66 51 40 43 28 20 10 8 8 8 12 14 12 14 17 18 19 23 29 29 30 26 27 21 20 18 20 30 33 35 38 40 40 41 50
85 79 81 80 85 90 92 64 36 48 58 22 22 27 18 18 6 6 6 11 14 15 18 18 18 20 16 18 17 19 19 22 18 19 18 19 19 29 33 31 39 42 42 42 48
82 82 82 81 87 90 94 56 35 30 30 27 23 21 16 14 9 7 10 15 19 18 21 19 20 13 14 13 15 18 18 16 16 18 19 26 21 20 30 31 35 41 41 41 44
82 82 81 82 87 93 76 43 30 22 31 20 25 20 17 11 11 11 12 14 18 21 19 21 15 12 12 13 14 16 18 15 15 18 18 24 25 32 26 29 30 35 37 38 40
82 84 83 85 84 66 47 30 31 24 37 25 22 15 13 11 13 9 11 12 17 17 17 19 13 12 12 13 13 41 12 13 17 22 24 20 30 28 25 23 27 32 38 38 39
84 83 83 85 96 61 31 40 30 26 44 22 17 11 10 12 14 13 10 15 15 15 19 17 14 13 12 10 10 11 10 16 22 29 32 28 28 27 32 26 24 26 35 36 36
86 84 83 90 98 72 49 44 24 35 38 20 14 12 14 16 14 14 13 14 14 18 17 16 11 12 10 10 10 10 15 20 40 47 44 39 31 34 32 23 24 21 20 34 36
94 88 86 66 49 48 40 29 36 42 20 21 20 15 16 16 15 14 14 17 18 23 24 18 15 11 11 15 13 15 22 29 44 56 45 54 34 30 23 20 32 50 42 38 35
95 92 93 73 69 51 38 34 50 27 34 25 17 18 19 17 16 15 17 18 16 20 26 25 28 13 10 12 14 20 20 29 40 54 41 35 36 30 41 42 43 42 43 47 57
93 98 92 67 69 51 38 48 36 40 31 25 15 21 20 16 16 17 18 19 15 17 27 29 24 16 12 12 13 20 24 20 26 48 36 38 36 29 38 45 48 46 49 55 67
94 76 54 41 38 43 44 53 33 25 21 16 19 18 23 18 17 20 22 20 20 19 21 25 25 22 17 13 15 32 17 23 32 40 47 48 49 39 56 62 52 51 50 68 77
79 58 43 31 34 43 47 44 24 16 14 20 20 37 36 30 24 25 26 20 17 19 20 38 25 22 20 23 22 19 21 25 32 38 43 52 52 51 60 64 59 56 62 68 62
72 54 32 28 40 53 46 31 30 17 14 15 18 32 29 26 25 24 23 22 18 20 27 34 30 30 20 18 15 15 22 32 38 36 38 47 51 41 61 64 75 81 64 76 71
62 63 26 28 44 44 36 23 19 16 18 19 21 20 27 36 41 24 21 18 19 22 26 32 30 28 22 20 18 19 18 19 28 40 32 57 59 46 64 84 80 80 79 74 71
60 52 33 33 40 48 34 26 27 16 18 19 24 22 21 24 26 26 24 18 17 20 52 36 29 27 27 24 24 21 18 18 24 25 29 45 77 77 78 79 76 73 67 73 73
60 57 47 48 28 30 28 25 23 20 18 20 22 24 25 31 28 26 22 21 18 43 28 19 26 47 33 24 24 23 19 18 26 18 18 42 73 70 66 73 76 77 75 57 58
50 51 52 54 46 36 39 29 26 21 23 26 29 25 27 33 31 29 26 23 32 25 27 27 31 42 28 24 28 26 21 21 23 32 57 55 61 57 56 44 53 58 55 55 54
61 59 56 60 43 34 31 32 27 29 24 20 26 30 28 26 25 24 25 23 24 28 20 28 32 38 45 32 32 33 33 28 35 34 51 62 55 45 44 36 50 58 54 55 54

GFSSW_sfc_rhum_219.txt.gz
RH
84 84 85 85 85 85 85 86 86 87 87 88 89 89 92 92 90 58 25 27 35 62 60 21 19 20 25 30 31 41 58 67 57 57 53 53 58 53 54 65 62 64 69 66 73
83 84 84 85 85 85 85 86 87 87 88 88 89 88 91 92 72 38 34 64 59 60 18 20 19 21 25 27 31 43 55 43 42 43 48 52 58 62 65 71 77 68 64 65 69
81 84 84 85 86 85 85 86 87 88 88 88 88 89 91 94 31 18 46 69 51 47 23 23 22 22 28 26 29 34 44 34 38 37 41 53 57 53 69 77 75 76 72 66 67
81 83 84 84 84 85 85 86 87 88 88 88 87 89 91 74 23 17 57 64 62 34 18 17 18 21 26 26 26 28 30 31 34 40 38 48 50 59 56 52 57 62 61 62 66
82 83 82 83 84 84 85 86 88 88 88 86 85 87 67 29 21 13 59 55 31 24 20 19 21 22 24 24 20 26 25 27 30 32 38 38 48 52 55 53 52 57 56 60 62
82 82 82 82 83 83 84 87 88 88 86 84 84 87 65 23 12 16 24 27 26 22 21 20 19 19 23 25 23 21 21 24 29 28 31 36 49 43 55 50 51 57 61 58 60
81 82 81 82 82 84 85 87 87 86 85 83 84 72 58 14 17 17 14 30 28 20 18 15 17 19 23 24 20 19 21 24 29 23 29 35 49 48 55 48 54 58 58 56 55
81 82 81 81 82 84 87 88 87 85 83 82 82 78 30 14 23 19 16 12 13 17 15 13 16 18 23 19 17 22 26 33 26 20 27 28 39 43 56 52 54 55 55 54 54
82 81 80 81 82 85 91 89 85 82 80 80 84 68 31 26 20 15 13 10 11 16 14 9 12 19 17 20 23 28 33 35 29 23 21 22 24 36 54 47 49 49 52 56 55
82 85 81 82 82 88 92 88 82 80 71 58 48 50 28 20 15 10 11 10 11 16 13 13 18 19 21 21 28 27 28 26 29 22 22 20 20 50 56 52 52 49 49 54 58
82 82 82 82 82 91 93 68 34 45 64 14 14 27 20 16 11 10 9 10 15 15 22 19 20 21 19 19 18 20 23 23 20 21 21 22 24 38 53 55 56 59 55 54 53
82 82 82 81 83 92 95 47 35 33 32 29 27 26 21 20 13 8 10 14 19 21 22 21 23 16 16 17 17 20 22 17 16 20 20 24 21 23 42 46 44 50 50 50 50
82 82 82 82 87 94 78 42 34 26 37 23 30 24 19 17 14 8 9 16 20 23 21 23 17 15 15 17 16 18 16 16 16 20 20 27 26 31 26 37 38 42 42 43 50
82 82 86 84 85 73 55 38 35 27 41 23 27 20 16 12 15 10 10 14 20 18 21 22 17 15 18 17 15 40 13 15 21 23 26 22 32 28 29 38 37 43 45 44 48
83 85 83 86 96 68 41 53 39 28 46 25 21 14 15 12 16 14 13 15 18 17 20 19 17 17 14 11 11 11 12 19 26 30 47 29 29 28 33 27 34 38 42 43 44
85 85 84 91 96 76 60 55 30 34 39 24 15 14 14 16 14 15 14 14 16 18 22 18 15 14 14 10 11 14 16 25 46 40 39 37 34 37 40 31 54 38 39 42 45
94 88 86 69 42 61 51 31 32 38 24 21 21 16 17 17 17 17 17 18 19 32 27 19 18 15 11 16 13 17 23 30 36 54 40 57 38 68 60 59 61 62 50 61 49
89 89 93 79 82 67 36 33 52 26 34 28 23 19 18 18 18 18 18 20 18 21 27 26 27 20 16 12 15 26 21 28 44 44 36 38 49 60 51 55 58 63 68 66 69
93 97 97 77 78 68 35 44 29 32 30 30 18 22 24 20 19 19 22 20 17 18 21 36 28 18 15 15 15 25 27 24 31 50 44 45 44 40 49 52 62 67 62 63 56
96 89 64 57 54 45 41 51 37 28 26 23 24 20 22 22 21 21 21 22 19 18 25 27 29 24 18 14 16 35 20 31 34 42 59 50 49 57 60 59 54 74 84 83 74
81 56 49 51 41 41 47 47 32 21 18 22 25 29 35 30 21 23 29 20 19 22 22 27 25 20 21 22 24 17 20 29 36 44 52 53 49 49 62 71 62 73 78 82 81
77 48 41 40 41 66 49 39 34 21 18 17 26 33 35 32 31 27 25 26 20 24 26 35 30 31 24 18 18 18 22 36 36 43 48 53 55 60 68 76 77 86 75 77 74
61 65 34 32 41 46 42 28 23 23 22 24 26 27 30 37 34 25 23 23 23 25 26 30 30 32 24 20 21 21 21 20 37 36 31 58 61 65 85 86 84 85 80 79 74
58 51 38 40 50 48 49 31 29 21 21 24 25 23 25 26 29 29 23 21 18 23 57 38 30 25 29 27 28 27 22 22 26 25 30 48 87 90 88 76 71 71 76 79 78
68 64 60 46 36 41 38 32 26 26 22 26 26 28 26 31 26 27 23 24 19 41 27 19 32 43 32 26 29 27 26 24 26 24 20 45 90 86 83 77 76 78 79 66 67
71 56 57 59 61 57 59 34 28 28 30 30 30 27 28 33 29 27 24 29 29 21 29 31 33 50 33 30 32 32 34 27 41 60 73 72 75 67 65 71 78 75 73 66 57
82 68 60 61 51 46 37 37 27 31 23 26 29 29 23 23 26 27 25 24 27 18 21 29 34 35 43 37 33 42 38 40 48 53 64 72 65 52 46 49 63 64 58 56 54

GFSSW_sfc_rhum_222.txt.gz
RH
83 82 84 85 84 84 86 86 87 87 87 88 88 89 92 92 90 70 25 27 34 59 59 20 21 23 37 41 38 47 61 69 62 61 59 60 65 58 57 67 65 65 73 74 80
82 83 84 85 85 86 84 86 87 87 88 88 88 89 91 92 75 34 35 69 58 55 18 22 20 24 28 31 34 48 63 54 45 48 59 59 60 66 67 74 76 77 80 82 85
82 82 84 84 84 85 86 86 86 87 88 88 88 89 91 94 27 16 71 69 49 41 22 23 23 23 27 29 34 42 46 37 39 40 46 60 65 57 72 82 73 84 92 88 88
82 82 82 83 84 84 84 85 86 87 88 87 86 89 92 72 23 20 72 70 56 26 20 18 19 22 27 30 27 36 34 36 41 40 47 59 61 63 62 56 58 69 78 82 85
81 81 81 82 82 84 84 85 87 88 88 86 85 89 64 21 18 15 68 54 30 23 21 20 20 24 25 26 25 25 31 34 34 39 43 48 60 60 62 59 62 67 70 76 78
80 81 81 81 82 83 84 85 88 88 87 85 84 89 62 20 13 17 17 26 27 22 20 21 19 21 25 26 25 21 24 24 33 35 41 42 56 49 62 59 66 69 70 71 71
81 81 81 81 81 82 85 87 88 87 86 84 84 73 53 12 17 21 19 26 29 22 22 18 19 19 22 24 22 21 26 25 27 33 37 38 55 52 62 57 68 67 67 65 64
81 82 81 81 80 82 85 88 88 86 84 82 82 75 24 11 22 23 18 13 16 23 20 17 17 19 23 20 18 26 27 32 27 28 34 35 49 48 59 58 68 66 64 63 63
82 82 81 81 81 83 88 89 87 83 81 80 82 62 29 27 24 18 14 13 12 16 17 10 15 19 17 20 25 29 33 32 31 27 33 34 40 36 58 56 62 66 65 63 62
82 82 82 81 81 84 91 90 82 82 76 64 51 58 28 21 21 12 17 10 11 17 15 14 19 20 21 23 30 29 24 22 28 30 34 38 31 54 62 55 60 62 63 63 60
82 82 82 81 81 83 95 68 31 43 66 13 14 26 22 18 17 11 10 11 15 16 24 21 20 22 20 21 20 22 24 23 23 20 25 26 25 26 65 60 59 59 57 59 62
81 82 82 81 82 84 96 46 36 38 31 32 27 24 23 23 19 9 10 14 19 24 24 22 24 19 18 18 19 23 26 22 18 21 23 29 22 24 64 60 57 61 57 55 56
81 82 82 81 84 92 78 40 38 36 36 24 32 28 22 20 16 12 11 17 20 22 23 24 20 17 18 19 21 24 21 18 15 18 22 26 27 31 38 60 57 55 56 54 56
82 82 82 83 81 77 57 50 54 36 39 24 30 18 19 17 16 11 11 15 21 20 21 23 19 19 22 19 20 43 14 15 24 24 25 25 33 35 34 42 52 47 53 51 55
82 82 87 86 93 73 48 60 43 32 45 27 25 17 18 14 17 16 15 15 20 21 21 20 21 21 19 16 14 12 13 24 27 29 45 32 31 32 49 31 34 43 50 49 54
84 84 85 91 94 79 68 60 32 32 41 26 16 18 17 17 15 17 16 15 18 20 23 20 19 18 16 14 11 15 18 26 43 39 35 42 36 43 82 76 58 57 42 51 53
90 87 85 71 40 70 61 32 31 40 27 24 21 18 17 18 17 19 18 21 22 32 28 20 20 19 14 16 16 20 24 32 35 50 39 50 58 71 63 62 71 78 63 55 53
91 88 92 82 89 78 40 33 53 26 34 31 22 21 17 18 22 20 21 22 23 23 28 27 28 24 17 14 16 29 30 29 39 41 36 45 64 61 60 60 69 69 71 69 73
91 96 98 82 85 81 34 44 31 32 32 25 22 21 26 23 20 23 21 22 18 19 21 34 30 20 21 16 15 26 28 25 38 53 46 53 56 56 56 64 77 71 64 69 69
96 90 70 68 68 46 39 52 36 29 28 26 25 23 24 23 22 24 24 20 20 18 23 32 32 25 19 16 16 31 22 28 36 43 60 54 57 74 70 68 78 87 87 87 87
89 52 50 62 54 41 46 43 34 27 24 23 28 33 29 32 23 23 22 25 22 25 24 30 33 23 19 21 26 17 20 36 39 48 51 56 54 55 62 68 83 86 89 90 86
78 48 50 46 40 72 48 43 38 26 22 22 26 35 36 35 32 33 28 28 24 24 26 38 31 38 27 21 22 22 27 35 33 44 60 55 56 68 79 79 82 86 82 83 85
69 56 43 38 41 48 45 34 29 25 27 26 29 30 38 39 35 30 28 26 30 23 29 29 29 33 25 21 22 24 26 33 37 36 52 52 53 83 90 88 86 85 84 84 81
61 46 44 47 56 53 54 38 33 23 26 29 28 24 27 29 29 32 26 20 28 32 54 37 30 27 28 27 31 32 28 25 30 28 34 50 66 95 93 89 82 82 82 81 80
66 64 60 49 46 57 58 40 33 31 27 28 26 28 27 36 29 29 24 24 21 41 28 23 30 45 34 29 32 33 33 36 26 28 24 28 72 90 90 80 76 83 78 72 70
81 56 63 63 68 65 62 50 35 32 34 32 29 29 30 32 32 26 23 29 29 20 31 31 37 55 34 31 34 34 40 37 51 53 83 87 89 78 77 83 86 84 74 72 70
91 75 63 65 57 48 42 36 30 34 27 29 26 27 24 27 26 28 26 22 29 19 24 30 38 34 31 39 35 37 47 47 59 61 78 84 75 57 58 71 73 66 61 61 60